Moncks Corner, SC

1:20 PM EST on December 04, 2016 (GMT -0500)
Moncks Corner

Weather History for KMKS - March, 2013

Change the Weather History Date:

Wednesday, March 20, 2013

  Actual Average (KCHS) Record (KCHS)
Temperature  
Mean Temperature 50 °F 59 °F  
Max Temperature 60 °F 71 °F 88 °F (1982)
Min Temperature 41 °F 48 °F 30 °F (1939)
Degree Days  
Heating Degree Days 14 7  
Month to date heating degree days 177  
Since 1 July heating degree days 1813  
Cooling Degree Days 0 1  
Month to date cooling degree days 18  
Year to date cooling degree days 25  
Moisture  
Dew Point 27 °F    
Average Humidity 37    
Maximum Humidity 87    
Minimum Humidity 20    
Precipitation  
Precipitation 0.00 in 0.12 in 2.80 in (2003)
Month to date precipitation 2.38  
Year to date precipitation 9.05  
Sea Level Pressure  
Sea Level Pressure 30.00 in    
Wind  
Wind Speed 5 mph (NNE)    
Max Wind Speed 14 mph    
Max Gust Speed 20 mph    
Visibility 9 miles    
Events      
T = Trace of Precipitation, MM = Missing Value Source: NWS Daily Summary

Daily Weather History Graph

Daily Weather History Graph

Search for Another Location

Airport or City:

Trip Planner

Search our weather history database for the weather conditions in past years. The results will help you decide how hot, cold, wet, or windy it might be!

Date:

Astronomy

Mar. 20, 2013 Rise Set
Actual Time 7:23 AM EDT 7:31 PM EDT
Civil Twilight 6:58 AM EDT 7:56 PM EDT
Nautical Twilight 6:30 AM EDT 8:25 PM EDT
Astronomical Twilight 6:00 AM EDT 8:54 PM EDT
Moon 1:21 PM EDT (3/20) 2:45 AM EDT (3/20)
Length of Visible Light 12h 57m
Length of Day
12h 08m
First Quarter, 59% of the Moon is Illuminated
Mar 20
First Quarter
Mar 27
Full
Apr 3
Last Quarter
Apr 10
New
Apr 18
First Quarter

Hourly Weather History & Observations

Time (EDT) Temp. Dew Point Humidity Pressure Visibility Wind Dir Wind Speed Gust Speed Precip Events Conditions
12:15 AM 53.6 °F 39.2 °F 58% 30.01 in 10.0 mi Calm Calm - N/A   Clear
12:35 AM 53.6 °F 39.2 °F 58% 30.01 in 7.0 mi NNW 3.5 mph - N/A   Clear
12:55 AM 55.4 °F 41.0 °F 58% 30.01 in 7.0 mi NNW 4.6 mph - N/A   Clear
1:15 AM 59.0 °F 35.6 °F 42% 30.01 in 10.0 mi North 6.9 mph - N/A   Clear
1:35 AM 57.2 °F 37.4 °F 48% 30.02 in 7.0 mi North 3.5 mph - N/A   Clear
1:55 AM 57.2 °F 33.8 °F 41% 30.02 in 10.0 mi North 3.5 mph - N/A   Clear
2:15 AM 57.2 °F 33.8 °F 41% 30.02 in 10.0 mi North 5.8 mph - N/A   Clear
2:35 AM 57.2 °F 35.6 °F 44% 30.02 in 10.0 mi North 4.6 mph - N/A   Clear
2:55 AM 55.4 °F 33.8 °F 44% 30.03 in 10.0 mi North 4.6 mph - N/A   Clear
3:15 AM 57.2 °F 32.0 °F 38% 30.03 in 10.0 mi North 4.6 mph - N/A   Clear
3:35 AM 55.4 °F 32.0 °F 41% 30.02 in 7.0 mi NNE 3.5 mph - N/A   Clear
3:55 AM 55.4 °F 30.2 °F 38% 30.02 in 10.0 mi North 8.1 mph - N/A   Clear
4:15 AM 53.6 °F 30.2 °F 41% 30.02 in 10.0 mi North 4.6 mph - N/A   Clear
4:35 AM 53.6 °F 30.2 °F 41% 30.02 in 10.0 mi North 5.8 mph - N/A   Clear
4:55 AM 53.6 °F 28.4 °F 38% 30.02 in 10.0 mi NNE 5.8 mph - N/A   Clear
5:15 AM 53.6 °F 28.4 °F 38% 30.02 in 10.0 mi NNE 4.6 mph - N/A   Clear
5:35 AM 53.6 °F 26.6 °F 35% 30.03 in 10.0 mi NNE 6.9 mph - N/A   Clear
5:55 AM 53.6 °F 24.8 °F 33% 30.03 in 10.0 mi NNE 5.8 mph - N/A   Clear
6:15 AM 53.6 °F 24.8 °F 33% 30.03 in 10.0 mi NNE 6.9 mph - N/A   Clear
6:35 AM 51.8 °F 24.8 °F 35% 30.04 in 10.0 mi NNE 4.6 mph - N/A   Clear
6:55 AM 51.8 °F 24.8 °F 35% 30.05 in 10.0 mi NNE 5.8 mph - N/A   Clear
7:15 AM 51.8 °F 24.8 °F 35% 30.06 in 10.0 mi NNE 6.9 mph - N/A   Clear
7:35 AM 50.0 °F 24.8 °F 37% 30.07 in 10.0 mi NNE 5.8 mph - N/A   Clear
7:55 AM 50.0 °F 24.8 °F 37% 30.08 in 7.0 mi NNE 5.8 mph - N/A   Clear
8:15 AM 50.0 °F 24.8 °F 37% 30.08 in 7.0 mi NE 6.9 mph - N/A   Clear
8:35 AM 50.0 °F 24.8 °F 37% 30.08 in 10.0 mi NE 5.8 mph - N/A   Clear
8:55 AM 51.8 °F 24.8 °F 35% 30.09 in 7.0 mi NE 8.1 mph - N/A   Clear
9:15 AM 51.8 °F 23.0 °F 33% 30.11 in 7.0 mi NNE 8.1 mph - N/A   Clear
9:35 AM 53.6 °F 21.2 °F 28% 30.12 in 7.0 mi NE 8.1 mph - N/A   Clear
9:55 AM 53.6 °F 23.0 °F 30% 30.12 in 7.0 mi NE 8.1 mph - N/A   Clear
10:15 AM 55.4 °F 17.6 °F 23% 30.12 in 7.0 mi NE 13.8 mph 18.4 mph N/A   Clear
10:35 AM 55.4 °F 19.4 °F 25% 30.11 in 7.0 mi NE 11.5 mph 19.6 mph N/A   Clear
10:55 AM 57.2 °F 19.4 °F 23% 30.11 in 10.0 mi NE 9.2 mph 17.3 mph N/A   Clear
11:15 AM 57.2 °F 15.8 °F 20% 30.11 in 10.0 mi ENE 11.5 mph 16.1 mph N/A   Clear
11:35 AM 59.0 °F 19.4 °F 22% 30.11 in 7.0 mi NNE 9.2 mph - N/A   Clear
11:55 AM 59.0 °F 19.4 °F 22% 30.10 in 10.0 mi NNE 6.9 mph - N/A   Clear
12:15 PM 59.0 °F 19.4 °F 22% 30.10 in 10.0 mi NNW 6.9 mph - N/A   Clear
12:35 PM 59.0 °F 19.4 °F 22% 30.08 in 10.0 mi NNW 5.8 mph - N/A   Clear
12:55 PM 59.0 °F 19.4 °F 22% 30.08 in 10.0 mi North 8.1 mph - N/A   Clear
1:15 PM 59.0 °F 17.6 °F 20% 30.06 in 10.0 mi North 9.2 mph - N/A   Clear
1:35 PM 59.0 °F 21.2 °F 23% 30.06 in 10.0 mi North 9.2 mph - N/A   Clear
1:55 PM 59.0 °F 21.2 °F 23% 30.05 in 7.0 mi NNW 8.1 mph - N/A   Clear
2:15 PM 59.0 °F 23.0 °F 25% 30.03 in 7.0 mi North 5.8 mph - N/A   Scattered Clouds
2:35 PM 59.0 °F 21.2 °F 23% 30.01 in 10.0 mi NNW 4.6 mph - N/A   Scattered Clouds
2:55 PM 59.0 °F 23.0 °F 25% 29.99 in 10.0 mi Calm Calm - N/A   Clear
3:35 PM 59.0 °F 23.0 °F 25% 29.95 in 10.0 mi North 4.6 mph - N/A   Clear
3:55 PM 60.8 °F 23.0 °F 23% 29.94 in 7.0 mi NW 5.8 mph - N/A   Clear
4:15 PM 59.0 °F 21.2 °F 23% 29.93 in 10.0 mi NNW 3.5 mph - N/A   Clear
4:35 PM 60.8 °F 23.0 °F 23% 29.93 in 10.0 mi NNW 5.8 mph - N/A   Clear
4:55 PM 60.8 °F 23.0 °F 23% 29.91 in 7.0 mi NNW 4.6 mph - N/A   Clear
5:15 PM 60.8 °F 21.2 °F 22% 29.90 in 10.0 mi NNW 3.5 mph - N/A   Clear
5:35 PM 60.8 °F 23.0 °F 23% 29.90 in 7.0 mi Calm Calm - N/A   Clear
5:55 PM 60.8 °F 21.2 °F 22% 29.91 in 5.0 mi Calm Calm - N/A   Haze
6:15 PM 59.0 °F 24.8 °F 27% 29.91 in 7.0 mi Calm Calm - N/A   Clear
6:35 PM 59.0 °F 24.8 °F 27% 29.90 in 7.0 mi Calm Calm - N/A   Scattered Clouds
7:15 PM 57.2 °F 32.0 °F 38% 29.89 in 7.0 mi Calm Calm - N/A   Mostly Cloudy
7:35 PM 55.4 °F 32.0 °F 41% 29.90 in 10.0 mi SSE 4.6 mph - N/A   Mostly Cloudy
7:55 PM 55.4 °F 30.2 °F 38% 29.90 in 10.0 mi SSE 4.6 mph - N/A   Scattered Clouds
8:15 PM 53.6 °F 30.2 °F 41% 29.89 in 10.0 mi SSE 3.5 mph - N/A   Clear
8:35 PM 53.6 °F 32.0 °F 44% 29.88 in 10.0 mi Calm Calm - N/A   Clear
8:55 PM 51.8 °F 32.0 °F 47% 29.87 in 10.0 mi Calm Calm - N/A   Clear
9:15 PM 50.0 °F 32.0 °F 50% 29.87 in 10.0 mi Calm Calm - N/A   Clear
9:35 PM 48.2 °F 35.6 °F 62% 29.86 in 10.0 mi Calm Calm - N/A   Clear
9:55 PM 46.4 °F 35.6 °F 66% 29.86 in 10.0 mi Calm Calm - N/A   Clear
10:15 PM 44.6 °F 35.6 °F 71% 29.86 in 10.0 mi Calm Calm - N/A   Clear
10:35 PM 44.6 °F 35.6 °F 71% 29.86 in 10.0 mi Calm Calm - N/A   Clear
11:15 PM 42.8 °F 35.6 °F 76% 29.85 in 10.0 mi Calm Calm - N/A   Clear
11:35 PM 41.0 °F 37.4 °F 87% 29.84 in 10.0 mi Calm Calm - N/A   Clear
11:55 PM 41.0 °F 35.6 °F 81% 29.84 in 10.0 mi Calm Calm - N/A   Clear